Location: Unspecified
(0.0000°N, 0.0000°E)
Time: 16:12:14
(UTC+00:00)

A-11 Canister half - Visible Passes

Search period start: 29 July 2015 00:00
Search period end: 08 August 2015 00:00
Orbit: 1526 x 1683 km, 47.3° (Epoch: 27 July)

Date Brightness Start Highest point End Pass type
(mag) Time Alt. Az. Time Alt. Az. Time Alt. Az.
29 Jul 11.1 01:53:07 14° ESE 01:53:07 14° ESE 01:55:06 10° E visible
29 Jul 9.0 03:51:27 61° SW 03:53:44 87° NW 04:03:56 10° NE visible
30 Jul 8.9 03:31:34 82° SSW 03:32:09 88° SE 03:42:21 10° NE visible
30 Jul 10.5 05:30:50 10° W 05:37:47 19° NW 05:44:10 10° N visible
31 Jul 9.1 03:11:38 74° ENE 03:11:38 74° ENE 03:20:45 10° NE visible
31 Jul 10.4 05:09:58 13° W 05:16:07 21° NW 05:22:54 10° N visible
01 Aug 9.5 02:51:40 55° ENE 02:51:40 55° ENE 02:59:08 10° NE visible
01 Aug 10.3 04:50:00 18° WNW 04:54:28 23° NW 05:01:38 10° N visible
02 Aug 10.0 02:31:39 40° NE 02:31:39 40° NE 02:37:31 10° NE visible
02 Aug 10.1 04:29:59 22° WNW 04:32:49 24° NW 04:40:19 10° N visible
03 Aug 10.4 02:11:35 30° NE 02:11:35 30° NE 02:15:53 10° NE visible
03 Aug 10.1 04:09:55 26° WNW 04:11:11 26° NW 04:18:59 10° N visible
04 Aug 10.8 01:51:29 21° NE 01:51:29 21° NE 01:54:14 10° NE visible
04 Aug 10.1 03:49:48 28° NW 03:49:48 28° NW 03:57:37 10° N visible
05 Aug 11.1 01:31:19 15° NE 01:31:19 15° NE 01:32:34 10° NE visible
05 Aug 10.1 03:29:39 29° NNW 03:29:39 29° NNW 03:36:15 10° N visible
06 Aug 10.3 03:09:26 27° NNW 03:09:26 27° NNW 03:14:51 10° NNE visible
07 Aug 10.5 02:49:11 24° N 02:49:11 24° N 02:53:26 10° NNE visible
